Regional Weather Roundup
Issued by NWS

Home | Current Version | Previous Version | Text Only | Print | Product List | Glossary On
Versions: 1 2 3 4 5 6 7 8 9 10 11 12 13 14 15 16 17 18 19 20 21 22 23 24 25 26 27 28 29 30 31 32 33 34 35 36 37 38 39 40 41 42 43 44 45 46 47 48 49 50
000
ASUS42 KFFC 191403
RWRGA
WEATHER ROUNDUP FOR GEORGIA
NATIONAL WEATHER SERVICE PEACHTREE CITY GA
900 AM EST FRI DEC 19 2014

NOTE: "FAIR" INDICATES FEW OR NO CLOUDS BELOW 12,000 FEET WITH NO
SIGNIFICANT WEATHER AND/OR OBSTRUCTIONS TO VISIBILITY.

* = USE WITH CAUTION. THE STATIONS MARKED WITH AN ASTERISK MAY NOT
REPORT WEATHER SUCH AS PRECIPITATION, FOG, OR THUNDER AND ARE NOT
QUALITY CONTROLLED BY NWS.

THE REMARK "TC" DENOTES TEMPERATURE READING IN DEGREES CELSIUS.

GAZ001>058-191500-
NORTH GEORGIA

CITY           SKY/WX    TMP DP  RH WIND       PRES   REMARKS
ATLANTA        PTSUNNY   39  32  76 NW7       30.15S WCI  34
ATHENS         PTSUNNY   40  34  79 NW3       30.16R
CHAMBLEE       MOSUNNY   38  32  79 W3        30.15S
PEACHTREE CITY CLOUDY    40  34  79 NW6       30.17F
ROME           SUNNY     39  31  72 CALM      30.19R
WEST ATLANTA   MOSUNNY   38  31  76 W5        30.17R WCI  34
GAINESVILLE    MOSUNNY   40  33  76 CALM      30.15R
CARTERSVILLE   SUNNY     34  32  92 CALM      30.19R


CITY           SKY/WX    TMP DP  RH WIND       PRES   REMARKS
DALTON*        SUNNY     36  32  87 N8        30.18F WCI  29
LAWRENCEVILLE* SUNNY     37  27  65 CALM      30.13S
MARIETTA       MOSUNNY   39  32  77 NW5       30.15S
KENNESAW*      MOSUNNY   36  28  75 NW5       30.18R WCI  32
$$

GAZ059>098-102>109-191500-
CENTRAL GEORGIA

CITY           SKY/WX    TMP DP  RH WIND       PRES   REMARKS
AUGUSTA-BUSH   MOSUNNY   41  37  86 CALM      30.17R
AUGUSTA-DANIEL MOSUNNY   46  38  73 NW8       30.16R
COLUMBUS       CLOUDY    43  34  70 NE3       30.17S
MACON          PTSUNNY   40  36  86 W3        30.16S
ROBINS AFB     PTSUNNY   42  36  79 NW6       30.15F


CITY           SKY/WX    TMP DP  RH WIND       PRES   REMARKS
LAGRANGE*      CLOUDY    41  40  95 CALM      30.18R
SYLVANIA*      PTSUNNY   42  39  91 CALM      30.17R
MILLEDGEVILLE* PTSUNNY   43  37  81 CALM      30.16S
$$

GAZ099>101-110>166-191500-
SOUTH GEORGIA

CITY           SKY/WX    TMP DP  RH WIND       PRES   REMARKS
SAVANNAH       PTSUNNY   50  39  66 N5        30.16R
VALDOSTA       PTSUNNY   50  39  66 NE3       30.16R
ALMA           SUNNY     50  36  58 N6        30.15S
ST SIMONS      CLOUDY    52  41  66 N5        30.15R
FT STEWART     MOSUNNY   50  39  64 N5        30.15R
ALBANY         CLOUDY    46  36  68 CALM      30.18S
HUNTER AFB     MOSUNNY   49  41  72 NW3       30.13R
MOODY AFB      CLOUDY    51  38  61 N5        30.15S
BRUNSWICK      CLOUDY    50  41  71 CALM      30.16S


CITY           SKY/WX    TMP DP  RH WIND       PRES   REMARKS
BAINBRIDGE*    PTSUNNY   52  41  66 NE6       30.16S
MOULTRIE*      CLOUDY    48  41  76 N3        30.16S
VIDALIA*       PTSUNNY   46  37  71 N6        30.16R
WAYCROSS*      CLOUDY    53  42  67 CALM      30.15S
DOUGLAS*       MOSUNNY   52  36  54 N3        30.17S
$$



USA.gov is the U.S. government's official web portal to all federal, state and local government web resources and services.